DMSP 5D-2 F13 DEB, 42267

Orbit data source: Space-Track

DMSP 5D-2 F13 DEB, 42267 is space debris in SSO originally from a launch on Fri, 24 Mar 1995 UTC launched from the Air Force Western Test Range (AFWTR). Debris objects in space refer to the collection of defunct objects orbiting the Earth. Examples of debris include non-operational satellites, rocket bodies, and fragments generated from explosions, collisions, or faulty payload assembly.

Loading next visibility...
Identifier
42267, 1995-015GH
Orbit
SSO
Country
Flag of USUS
Related business
Manufacturer
Unknown
Mission
Spacecraft
Bus & Motor
Unknown
Mass
Unknown
Launch date (UTC)
1995-03-24 (31 years ago)
Launch vehicle
Unknown
Launch site
Air Force Western Test Range (AFWTR)
Object type
Payload
Rocket body
Debris
Shape & HBR
Unknown shape, 0.1 m
Radar Cross Section
Small (<0.1 m²)

Expand to show TLE details & history
Last TLE update: 2 days ago

TLE from 2 days ago
0 DMSP 5D-2 F13 DEB
1 42267U 95015GH  26117.12142969  .00005858  00000-0  26997-2 0  9993
2 42267  98.7362   4.3314 0081835 355.8816   4.1678 14.19645214563630
Epoch: 2026-04-27T02:54Z
TLE epoch observation values (Epoch: 2026-04-27T02:54:51.525Z)
Latitude
0.00005°
Longitude
105.50106°
Altitude
770.653 km
Speed
7.499 km/s
True Right ascension
00h 17m 19s
True Declination
0° 00' 00"
Sunlit
Object was in daylight at epoch
Visualization orbit readout
Latitude
Unknown
Longitude
Unknown
Altitude
Unknown
Speed
Unknown
Apparent Right ascension
Unknown
Apparent Declination
Unknown
Sunlit
N/A
Visualization observer readout
Local Sidereal Time
13:58:50
Azimuth
Unknown
Elevation
Unknown
Doppler factor
Unknown
Orbital elements
Apogee altitude
882.649 km
Perigee altitude
764.777 km
Semi-major axis
7,201.85 km
Eccentricity
0.00818
Inclination
98.7362°
RAAN
4.3314°
Arg. of periapsis
355.8816°
True anomaly
4.23666°
Mean anomaly
4.1678°
Eccentric anomaly
4.20216°
Mean motion
3.55122 °/min
Orbital period
101.37 mins
BSTAR
0.0026997
Loading maneuver chart data...
Computing Atmospheric mass density...

Documentation

Showing up to 5 results
|